When you browse on this site, cookies collect data to enhance your experience and personalize the content and advertising you see.
Visit our Privacy Policy to learn more. By continuing to use the site, you agree to this use of cookies and data.
  • In Slovakia
  • List of Countries
  • For 7 days
  • Water Temperature
  • Satellite Maps
  • Weather Map
  • Weather Widgets
  • user-avatar
    Login

    Hourly Weather Biryuki

    Today, 19 February, Tuesday

    Time Temperature Precipitation Wind Pressure Humidity
    00:00 -19°C° 0 mm 7 mps 743 mmHg 82%
    01:00 -19°C° 0 mm 7 mps 743 mmHg 82%
    02:00 -20°C° 0 mm 7 mps 744 mmHg 82%
    03:00 -20°C° 0 mm 6 mps 744 mmHg 83%
    04:00 -21°C° 0 mm 6 mps 745 mmHg 84%
    05:00 -21°C° 0 mm 6 mps 745 mmHg 84%
    06:00 -22°C° 0 mm 6 mps 746 mmHg 85%
    07:00 -21°C° 0 mm 5 mps 746 mmHg 85%
    08:00 -21°C° 0 mm 5 mps 747 mmHg 85%
    09:00 -21°C° 0 mm 5 mps 748 mmHg 85%
    10:00 -19°C° 0 mm 4 mps 747 mmHg 83%
    11:00 -17°C° 0 mm 3 mps 747 mmHg 82%
    12:00 -16°C° 0 mm 3 mps 747 mmHg 81%
    13:00 -14°C° 0 mm 2 mps 747 mmHg 82%
    14:00 -14°C° 0 mm 2 mps 747 mmHg 82%
    15:00 -13°C° 0 mm 2 mps 746 mmHg 82%
    16:00 -13°C° 0 mm 2 mps 746 mmHg 84%
    17:00 -13°C° 0 mm 2 mps 746 mmHg 86%
    18:00 -14°C° 0 mm 3 mps 745 mmHg 89%
    19:00 -14°C° 0 mm 3 mps 745 mmHg 90%
    20:00 -14°C° 0 mm 3 mps 745 mmHg 90%
    21:00 -14°C° 0 mm 3 mps 744 mmHg 91%
    22:00 -14°C° 0 mm 3 mps 744 mmHg 93%
    23:00 -14°C° 0 mm 3 mps 744 mmHg 94%

    Tomorrow, 20 February, Wednesday

    Time Temperature Precipitation Wind Pressure Humidity
    00:00 -13°C° 0 mm 3 mps 743 mmHg 96%
    01:00 -13°C° 0 mm 3 mps 743 mmHg 96%
    02:00 -13°C° 0 mm 3 mps 743 mmHg 97%
    03:00 -12°C° 0 mm 3 mps 743 mmHg 97%
    04:00 -10°C° 0 mm 3 mps 743 mmHg 97%
    05:00 -10°C° 0 mm 3 mps 743 mmHg 96%
    06:00 -9°C° 0 mm 3 mps 743 mmHg 96%
    07:00 -9°C° 0 mm 4 mps 742 mmHg 96%
    08:00 -9°C° 0 mm 4 mps 742 mmHg 96%
    09:00 -8°C° 0 mm 5 mps 742 mmHg 95%
    10:00 -8°C° 0 mm 5 mps 742 mmHg 95%
    11:00 -9°C° 0 mm 6 mps 741 mmHg 94%
    12:00 -9°C° 0 mm 6 mps 741 mmHg 93%
    13:00 -9°C° 0 mm 6 mps 740 mmHg 93%
    14:00 -9°C° 0 mm 6 mps 740 mmHg 93%
    15:00 -9°C° 0 mm 6 mps 740 mmHg 92%
    16:00 -8°C° 0.1 mm 5 mps 740 mmHg 92%
    17:00 -7°C° 0.1 mm 5 mps 739 mmHg 92%
    18:00 -7°C° 0.1 mm 5 mps 739 mmHg 92%
    19:00 -6°C° 0.1 mm 5 mps 739 mmHg 92%
    20:00 -6°C° 0.1 mm 5 mps 738 mmHg 91%
    21:00 -6°C° 0.1 mm 5 mps 738 mmHg 91%
    22:00 -5°C° 0.2 mm 5 mps 738 mmHg 92%
    23:00 -5°C° 0.2 mm 5 mps 737 mmHg 92%

    Day after tomorrow, 21 February, Thursday

    Time Temperature Precipitation Wind Pressure Humidity
    00:00 -5°C° 0.2 mm 5 mps 737 mmHg 93%
    01:00 -5°C° 0.3 mm 5 mps 737 mmHg 93%
    02:00 -5°C° 0.3 mm 5 mps 737 mmHg 93%
    03:00 -5°C° 0.3 mm 5 mps 737 mmHg 93%
    04:00 -4°C° 0.3 mm 5 mps 737 mmHg 93%
    05:00 -4°C° 0.3 mm 5 mps 737 mmHg 93%
    06:00 -3°C° 0.3 mm 4 mps 736 mmHg 93%
    07:00 -4°C° 0.1 mm 5 mps 737 mmHg 93%
    08:00 -2°C° 0.1 mm 5 mps 737 mmHg 92%
    09:00 -2°C° 0.1 mm 5 mps 737 mmHg 91%
    10:00 -2°C° 0 mm 5 mps 737 mmHg 93%
    11:00 -2°C° 0 mm 5 mps 737 mmHg 95%
    12:00 -1°C° 0 mm 4 mps 738 mmHg 96%
    13:00 -1°C° 0.1 mm 4 mps 738 mmHg 96%
    14:00 -1°C° 0.1 mm 4 mps 738 mmHg 96%
    15:00 -1°C° 0.1 mm 4 mps 738 mmHg 96%
    16:00 -2°C° 0.2 mm 4 mps 738 mmHg 95%
    17:00 -2°C° 0.2 mm 4 mps 738 mmHg 94%
    18:00 -2°C° 0.2 mm 4 mps 738 mmHg 93%
    19:00 -2°C° 0.3 mm 4 mps 738 mmHg 93%
    20:00 -2°C° 0.3 mm 4 mps 738 mmHg 93%
    21:00 -2°C° 0.3 mm 5 mps 738 mmHg 94%
    22:00 -3°C° 0.1 mm 4 mps 738 mmHg 94%
    23:00 -3°C° 0.1 mm 4 mps 738 mmHg 94%

    22 February, Friday

    Time Temperature Precipitation Wind Pressure Humidity
    00:00 -4°C° 0.1 mm 4 mps 738 mmHg 94%
    01:00 -4°C° 0 mm 4 mps 738 mmHg 94%
    02:00 -4°C° 0 mm 3 mps 737 mmHg 95%
    03:00 -4°C° 0 mm 3 mps 737 mmHg 95%
    04:00 -4°C° 0.2 mm 3 mps 737 mmHg 95%
    05:00 -5°C° 0.2 mm 3 mps 737 mmHg 96%
    06:00 -5°C° 0.2 mm 3 mps 737 mmHg 96%
    07:00 -4°C° 0.3 mm 3 mps 737 mmHg 96%
    08:00 -4°C° 0.3 mm 3 mps 737 mmHg 96%
    09:00 -2°C° 0.3 mm 3 mps 737 mmHg 96%
    10:00 -2°C° 0.4 mm 3 mps 737 mmHg 97%
    11:00 -1°C° 0.4 mm 3 mps 737 mmHg 97%
    12:00 -1°C° 0.4 mm 2 mps 737 mmHg 98%
    13:00 -1°C° 0.2 mm 3 mps 737 mmHg 96%
    14:00 -1°C° 0.2 mm 3 mps 738 mmHg 95%
    15:00 -1°C° 0.2 mm 3 mps 738 mmHg 93%
    16:00 -2°C° 0 mm 3 mps 738 mmHg 93%
    17:00 -3°C° 0 mm 2 mps 739 mmHg 92%
    18:00 -3°C° 0 mm 1 mps 739 mmHg 92%
    19:00 -3°C° 0 mm 1 mps 739 mmHg 93%
    20:00 -3°C° 0 mm 1 mps 740 mmHg 93%
    21:00 -4°C° 0 mm 1 mps 740 mmHg 94%
    22:00 -3°C° 0.1 mm 1 mps 741 mmHg 95%
    23:00 -3°C° 0.1 mm 1 mps 742 mmHg 96%

    23 February, Saturday

    Time Temperature Precipitation Wind Pressure Humidity
    00:00 -2°C° 0.1 mm 1 mps 742 mmHg 97%
    01:00 -4°C° 0.3 mm 2 mps 743 mmHg 97%
    02:00 -4°C° 0.3 mm 2 mps 743 mmHg 97%
    03:00 -4°C° 0.3 mm 2 mps 744 mmHg 97%
    04:00 -4°C° 0.2 mm 2 mps 745 mmHg 96%
    05:00 -6°C° 0.2 mm 3 mps 745 mmHg 96%
    06:00 -6°C° 0.2 mm 3 mps 746 mmHg 96%
    07:00 -6°C° 0.1 mm 3 mps 746 mmHg 96%
    08:00 -6°C° 0.1 mm 3 mps 747 mmHg 95%
    09:00 -7°C° 0.1 mm 4 mps 748 mmHg 95%
    10:00 -7°C° 0.1 mm 4 mps 748 mmHg 94%
    11:00 -8°C° 0.1 mm 4 mps 749 mmHg 94%
    12:00 -8°C° 0.1 mm 4 mps 750 mmHg 94%
    13:00 -8°C° 0 mm 4 mps 750 mmHg 94%
    14:00 -9°C° 0 mm 4 mps 751 mmHg 94%
    15:00 -9°C° 0 mm 4 mps 751 mmHg 93%
    16:00 -9°C° 0 mm 3 mps 752 mmHg 94%
    17:00 -9°C° 0 mm 3 mps 752 mmHg 94%
    18:00 -10°C° 0 mm 3 mps 753 mmHg 94%
    19:00 -10°C° 0 mm 3 mps 753 mmHg 95%
    20:00 -12°C° 0 mm 3 mps 753 mmHg 95%
    21:00 -12°C° 0 mm 3 mps 754 mmHg 95%
    22:00 -13°C° 0 mm 3 mps 754 mmHg 95%
    23:00 -14°C° 0 mm 3 mps 755 mmHg 95%

    24 February, Sunday

    Time Temperature Precipitation Wind Pressure Humidity
    00:00 -15°C° 0 mm 3 mps 755 mmHg 95%
    01:00 -16°C° 0 mm 3 mps 755 mmHg 96%
    02:00 -17°C° 0 mm 3 mps 756 mmHg 96%
    03:00 -17°C° 0 mm 2 mps 756 mmHg 96%
    04:00 -18°C° 0 mm 2 mps 756 mmHg 96%
    05:00 -20°C° 0 mm 2 mps 756 mmHg 95%
    06:00 -21°C° 0 mm 2 mps 757 mmHg 95%
    07:00 -21°C° 0 mm 2 mps 757 mmHg 92%
    08:00 -20°C° 0 mm 2 mps 757 mmHg 90%
    09:00 -17°C° 0 mm 1 mps 758 mmHg 87%
    10:00 -17°C° 0 mm 2 mps 758 mmHg 85%
    11:00 -16°C° 0 mm 2 mps 758 mmHg 83%
    12:00 -14°C° 0 mm 2 mps 758 mmHg 82%
    13:00 -13°C° 0 mm 2 mps 758 mmHg 83%
    14:00 -13°C° 0 mm 3 mps 758 mmHg 85%
    15:00 -13°C° 0 mm 3 mps 758 mmHg 87%
    16:00 -14°C° 0 mm 3 mps 758 mmHg 89%
    17:00 -14°C° 0 mm 3 mps 758 mmHg 92%
    18:00 -14°C° 0 mm 2 mps 758 mmHg 94%
    19:00 -15°C° 0 mm 3 mps 758 mmHg 94%
    20:00 -15°C° 0 mm 3 mps 758 mmHg 95%
    21:00 -14°C° 0 mm 3 mps 758 mmHg 95%
    22:00 -14°C° 0 mm 3 mps 758 mmHg 95%
    23:00 -14°C° 0 mm 3 mps 757 mmHg 96%
    Show more